User: anonymous   Login
Location: Bucharest
(44.4268°N, 26.1025°E)
Time: 13:55:25
(UTC+02:00)
Language:

TIROS 6 DEB - Orbit

View from above orbital plane
View from above orbital plane
View from above satellite
View from above satellite

Ground track
Ground track

The orbit data is extracted from the following two-line orbital elements,

1 29006U 62047F   22341.38130639  .00000416  00000-0  77775-4 0  9999
2 29006  58.3100 219.0273 0014707  54.4222 305.8188 14.81942426510479
Epoch (UTC): 07 December 2022 09:09:04
Eccentricity: 0.0014707
inclination: 58.3100°
perigee height: 613 km
apogee height: 633 km
right ascension of ascending node: 219.0273°
argument of perigee: 54.4222°
revolutions per day: 14.81942426
mean anomaly at epoch: 305.8188°
orbit number at epoch: 51047

The dashed part of the orbit path shows where the satellite is in the earth's shadow,  

DLR